Alexis Pouchin

Alexis Pouchin

Statistiques 2026

  • Courses courues : 574
  • Nb de victoires : 75
  • Nb de places : 204
  • Écart gagnant : 4
  • Réussite à la gagne : 13%
  • Réussite à la place : 36%
Musique : 2p 0p 0p 0p 1p Ap 6p 7p 7p 5p 4p 6p 6p 11p 11p 8p 12p 5p
DateRangCatégorieAlloc.Dist.HippodromeChevalPoidsSpé.
20/10/25 3 Galop 19 200€ Deauville Al Alaali 58 Plat lire

Longtemps au sein du peloton, a bien conclu, ratant de peu la victoire.

22/10/25 6 Galop 45 700€ Deauville Palo Santo 58 Plat
26/10/25 11 Galop 21 100€ Saint Cloud Timballina 58 Plat lire

N'a joué aucun rôle utile.

29/01/26 1 Galop 16 500€ Deauville Zangar 58 Plat
31/01/26 3 Galop 14 400€ Chantilly Bech River 58 Plat lire

Après avoir attendu au sein du peloton, a conclu fort honorablement.

31/01/26 15 Galop 21 100€ Chantilly Happy Hunter 58 Plat
05/02/26 4 Galop 24 700€ Chantilly Run Victoria 58 Plat
05/02/26 6 Galop 24 700€ Chantilly Nashoba 58 Plat
12/02/26 12 Galop 24 700€ Chantilly Pressure Test 58 Plat
13/02/26 7 Galop 16 500€ Chantilly Willower 58 Plat
13/02/26 13 Galop 17 300€ Chantilly Parmenide 58 Plat lire

N'a joué aucun rôle utile.

19/02/26 9 Galop 24 700€ Chantilly Elnath 58 Plat
20/02/26 13 Galop 24 700€ Chantilly Star Fixx 58 Plat
20/02/26 2 Galop 24 700€ Chantilly Tanques 58 Plat
25/02/26 5 Galop 24 700€ Chantilly Sansuro 58 Plat
25/02/26 1 Galop 24 700€ Chantilly Caudry 58 Plat
27/02/26 1 Galop 16 500€ Chantilly Wit 58 Plat
28/02/26 2 Galop 24 700€ Fontainebleau Jannet 58 Plat
03/03/26 1 Galop 24 700€ Chantilly Alto Blues 58 Plat
03/03/26 12 Galop 17 300€ Chantilly Proletariat 58 Plat lire

N'a joué aucun rôle utile.

10/03/26 6 Galop 24 700€ Saint Cloud Misan 58 Plat
15/03/26 4 Galop 50 300€ Saint Cloud Gazi 58 Plat
15/03/26 5 Galop 24 700€ Saint Cloud Baroud 58 Plat
16/03/26 2 Galop 24 700€ Chantilly Arbus 58 Plat
16/03/26 3 Galop 24 700€ Chantilly Vernon 58 Plat
17/03/26 2 Galop 16 500€ Fontainebleau Makarov 58 Plat
19/03/26 3 Galop 24 700€ Saint Cloud Regal Chime 58 Plat
19/03/26 3 Galop 24 700€ Saint Cloud Swift Magic 58 Plat
21/03/26 3 Galop 19 200€ Lyon La Soie Sansuro 58 Plat
21/03/26 3 Galop 11 900€ Lyon La Soie Geopolitical 58 Plat
24/03/26 3 Galop 24 700€ Saint Cloud Jannet 58 Plat
24/03/26 1 Galop 24 700€ Saint Cloud Aeronef 58 Plat
26/03/26 2 Galop 24 700€ Chantilly Assyrie 58 Plat
27/03/26 6 Galop 24 700€ Compiegne Praetoria 58 Plat
29/03/26 8 Galop 24 700€ Saint Cloud Midyan 58 Plat
29/03/26 4 Galop 24 700€ Saint Cloud Ilithyie 58 Plat
30/03/26 1 Galop 16 500€ Chantilly Geopolitical 58 Plat
03/04/26 3 Galop 24 700€ Saint Cloud Tanques 58 Plat
03/04/26 5 Galop 24 700€ Saint Cloud Adonide 58 Plat
03/04/26 3 Galop 24 700€ Saint Cloud Libeccio Wind 58 Plat
03/04/26 11 Galop 24 700€ Saint Cloud Mennula 58 Plat
05/04/26 4 Galop 24 700€ Longchamp Sumaco 58 Plat
05/04/26 6 Galop 24 700€ Longchamp Place de l'Opera 58 Plat
05/04/26 4 Galop 73 200€ Longchamp Roi de la Liberte 58 Plat
05/04/26 3 Galop 119 000€ Longchamp Cualificar 58 Plat
11/04/26 4 Galop 16 500€ Fontainebleau Good To See You 58 Plat
11/04/26 2 Galop 24 700€ Fontainebleau Stealitwithakiss 58 Plat
13/04/26 2 Galop 19 200€ Lyon Parilly Swift Magic 58 Plat
13/04/26 5 Galop 19 200€ Lyon Parilly Sansuro 58 Plat
12/04/26 1 Galop 73 200€ Longchamp Komorebi 58 Plat lire

Après avoir attendu dans la deuxième partie du peloton, a su se montrer le plus fort dans les cent derniers mètres.